Location: Bowden
(51.9167°N, 114.0333°W)
Time: 11:30:08
(UTC+00:00)

Envisat - Pass Details

Date: 07 December 2021
Orbit: 764 x 766 km, 98.2° (Epoch: 28 January)

Event Time Altitude Azimuth Distance (km) Brightness Sun altitude
Rises 13:38:27 0° 10° (N) 3,248 6.2 -16.1°
Reaches altitude 10° 13:40:52 10° 3° (N) 2,317 5.3 -15.7°
Maximum altitude 13:45:37 41° 295° (WNW) 1,112 3.4 -15.0°
Drops below altitude 10° 13:50:20 10° 226° (SW) 2,301 5.2 -14.3°
Sets 13:52:44 0° 220° (SW) 3,223 6.0 -14.0°
